Regional Weather Roundup
Issued by NWS

Home | Current Version | Previous Version | Graphics & Text | Print | Product List | Glossary On
Versions: 1 2 3 4 5 6 7 8 9 10 11 12 13 14 15 16 17 18 19 20 21 22 23 24 25 26 27 28 29 30 31 32 33 34 35 36 37 38 39 40 41 42 43 44 45 46 47 48 49 50
000
ASUS43 KBIS 220510
RWRND

NORTH DAKOTA REGIONAL WEATHER ROUNDUP
NATIONAL WEATHER SERVICE BISMARCK ND
1200 AM CDT FRI SEP 22 2017

NOTE: "FAIR" INDICATES FEW OR NO CLOUDS BELOW 12,000 FEET WITH NO
SIGNIFICANT WEATHER AND/OR OBSTRUCTIONS TO VISIBILITY.


NDZ001>003-009>011-017-220600-
NORTHWEST NORTH DAKOTA

CITY           SKY/WX    TMP DP  RH WIND       PRES   REMARKS
WILLISTON      CLOUDY    50  37  61 NE5       29.92R
MINOT          CLEAR     52  39  61 NW7       29.85R
MINOT AFB      CLEAR     52  39  61 N12       29.83R
$$

NDZ018>021-031>035-040>046-220600-
SOUTHWEST NORTH DAKOTA

CITY           SKY/WX    TMP DP  RH WIND       PRES   REMARKS
BISMARCK       CLOUDY    60  48  64 N9        29.81R
DICKINSON      PTCLDY    50  38  63 N10       29.85F
GARRISON         N/A     48  41  76 N9        29.86R
HETTINGER ARPT CLOUDY    51  38  60 N14G23    29.83F
$$

NDZ004>008-012>016-024-026-027-054-220600-
NORTHEAST NORTH DAKOTA

CITY           SKY/WX    TMP DP  RH WIND       PRES   REMARKS
GRAND FORKS    CLEAR     66  58  75 E5        29.71S
GRND FRKS AFB  CLEAR     61  56  84 NW8       29.73R
DEVILS LAKE    CLEAR     58  52  80 N14       29.80R
$$

NDZ022-023-025-028>030-036>039-047>053-220600-
SOUTHEAST NORTH DAKOTA

CITY           SKY/WX    TMP DP  RH WIND       PRES   REMARKS
FARGO          CLEAR     73  68  84 SE8       29.71S
JAMESTOWN      CLEAR     61  53  75 N10       29.74R
$$





USA.gov is the U.S. government's official web portal to all federal, state and local government web resources and services.